Regional Weather Roundup
Issued by NWS

Home | Current Version | Previous Version | Graphics & Text | Print | Product List | Glossary On
Versions: 1 2 3 4 5 6 7 8 9 10 11 12 13 14 15 16 17 18 19 20 21 22 23 24 25 26 27 28 29 30 31 32 33 34 35 36 37 38 39 40 41 42 43 44 45 46 47 48 49 50
000
ASUS43 KLOT 290410
RWRIL

ILLINOIS REGIONAL WEATHER ROUNDUP
NATIONAL WEATHER SERVICE CHICAGO/ROMEOVILLE IL
1000 PM CST SUN DEC 28 2014

NOTE: "FAIR" INDICATES FEW OR NO CLOUDS BELOW 12,000 FEET WITH NO
SIGNIFICANT WEATHER AND/OR OBSTRUCTIONS TO VISIBILITY.

* THESE STATIONS ARE NOT UNDER NWS QUALITY CONTROL. THEY ALSO MAY NOT
  REPORT WEATHER SUCH AS PRECIPITATION OR FOG.

ILZ001-002-007-009-015-016-024-290500-
NORTHWEST ILLINOIS

CITY           SKY/WX    TMP DP  RH WIND       PRES   REMARKS
MOLINE         PTCLDY    23  18  81 CALM      30.24R
STERLING*      CLEAR     25  18  74 CALM      30.24S
SAVANNA*       CLEAR     22  19  90 CALM      30.25S
$$

ILZ003-004-008-010-011-017-018-290500-
NORTH CENTRAL ILLINOIS

CITY           SKY/WX    TMP DP  RH WIND       PRES   REMARKS
ROCKFORD       PTCLDY    22  17  81 CALM      30.26R
FREEPORT*      CLEAR     18  15  89 CALM      30.26R
ROCHELLE*      CLEAR     22  19  89 CALM      30.24S
DE KALB*       CLEAR     21  16  80 NW5       30.24R WCI  15
PERU*          CLEAR     27  20  76 CALM      30.25S
$$

ILZ005-006-012>014-019>023-290500-
NORTHEAST ILLINOIS

CITY           SKY/WX    TMP DP  RH WIND       PRES   REMARKS
CHICAGO-OHARE  PTCLDY    26  18  71 NW7       30.23R WCI  18
CHICAGO-MIDWAY MOCLDY    27  18  69 W5        30.24R WCI  22
AURORA         CLEAR     22  16  78 NW6       30.25R WCI  14
LANSING*       PTCLDY    23  19  83 CALM      30.24S
JOLIET*        PTCLDY    21  17  84 CALM      30.25R
WAUKEGAN       CLEAR     19  15  84 CALM      30.23R
DUPAGE AIRPORT CLEAR     22  15  75 CALM      30.23R
KANKAKEE*      PTCLDY    24  22  89 CALM      30.25R
WHEELING       CLEAR     24  18  77 NW3       30.25R
MORRIS*        PTCLDY    23  19  86 NW3       30.24R
ROMEOVILLE*    PTCLDY    25  17  73 W3        30.24R
NORTHERLY ISL    N/A     30  19  63 W7          N/A  WCI  23
$$

LMZ740>746-290500-
SOUTHERN LAKE MICHIGAN

STATION/POSITION SKY/WX   TEMP    WIND        PRES    VSBY  WAVE
                          AIR SEA DIR/SP/G                  HT/PER
                          (F)     (DEG/KT/KT) (MB)    (MI)  (FT/S)
WAUKEGAN HARBOR            28     340/  4/  5   N/A
HARRISON CRIB              31     280/  8/ 10   N/A
BURNHAM HARBOR             30     250/  6/  7   N/A
CALUMET HARBOR             28     260/  4/  5 1022.6R
MICHIGAN CITY              29     190/  7/  9   N/A
$$

ILZ025>027-034>036-040-047-049-050-058-095>099-290500-
WEST-CENTRAL ILLINOIS

CITY           SKY/WX    TMP DP  RH WIND       PRES   REMARKS
QUINCY         MOCLDY    28  22  78 CALM      30.22R
GALESBURG*     PTCLDY    23  20  89 CALM      30.23S
MACOMB*        PTCLDY    25  24  94 CALM      30.25S
JACKSONVILLE*  PTCLDY    28  24  85 CALM      30.23S
PITTSFIELD*    MOCLDY    28  25  89 CALM      30.24R
$$

ILZ028>032-037-038-041>044-048-051>054-059>061-290500-
CENTRAL ILLINOIS

CITY           SKY/WX    TMP DP  RH WIND       PRES   REMARKS
PONTIAC        PTCLDY    25  19  79 CALM      30.24S
BLOOMINGTON    PTCLDY    24  23  96 CALM      30.23S
DECATUR        CLEAR     25  22  88 CALM      30.24R
PEORIA         CLEAR     24  17  74 CALM      30.24S
LACON*         CLEAR     21  17  83 CALM      30.24S
LINCOLN*       PTCLDY    26  23  90 CALM      30.25S
SPRINGFIELD    PTCLDY    23  20  88 CALM      30.24R
TAYLORVILLE    CLEAR     25  23  93 CALM      30.24S
$$

ILZ033-039-045-046-055>057-062-063-290500-
EAST-CENTRAL ILLINOIS

CITY           SKY/WX    TMP DP  RH WIND       PRES   REMARKS
CHAMPAIGN      CLEAR     22  19  89 CALM      30.23S
DANVILLE*      CLEAR     24  23  97 CALM      30.21R FOG
RANTOUL*       PTCLDY    24  21  86 CALM      30.23S
MATTOON        CLEAR     23  22  96 CALM      30.23R
PARIS*         FAIR      24  23  96 CALM      30.24S
$$

ILZ079-100>102-290500-
SOUTHWEST ILLINOIS

CITY           SKY/WX    TMP DP  RH WIND       PRES   REMARKS
ALTON          CLEAR     28  27  96 CALM      30.24F
BELLEVILLE     CLEAR     24  24  99 CALM      30.25R
CAHOKIA*       CLEAR     27  25  92 CALM      30.25S
SPARTA*        CLEAR     27  26  95 CALM      30.25S
$$

ILZ064>066-069>071-074>076-080>082-084>086-088>090-092>094-290500-
SOUTH-CENTRAL ILLINOIS

CITY           SKY/WX    TMP DP  RH WIND       PRES   REMARKS
CARBONDALE     CLOUDY    32  25  75 CALM      30.24S
CAIRO*         CLOUDY    36  30  79 NE7       30.22F WCI  30
EFFINGHAM*     CLEAR     25  23  90 CALM      30.26S
MARION         CLOUDY    32  27  80 NE5       30.24S WCI  27
MT. VERNON     PTCLDY    27  21  80 N3        30.24F
CENTRALIA*     PTCLDY    28  25  91 CALM      30.25S
SALEM*         CLEAR     28  26  92 CALM      30.25R FOG
METROPOLIS*    CLOUDY    34  32  93 NE3       30.22F
$$

ILZ067-068-072-073-078-083-087-091-290500-
SOUTHEAST ILLINOIS

CITY           SKY/WX    TMP DP  RH WIND       PRES   REMARKS
LAWRENCEVILLE  PTCLDY    26  22  84 CALM      30.26R
FLORA*         PTCLDY    27  27  99 CALM      30.26R
FAIRFIELD*     CLEAR     26  25  96 N3        30.24S
HARRISBURG*    CLOUDY    32  27  80 N5        30.26R WCI  27
ROBINSON*      CLEAR     25  24  97 CALM      30.26R
CARMI*         PTCLDY    30  29  95 N5        30.23F WCI  25
$$

ABBREVIATIONS USED IN REMARKS
   TC - TEMPERATURE IN CELSIUS
  WCI - WIND CHILL INDEX
   HX - HEAT INDEX
  VSB - VISIBILITY
$$



USA.gov is the U.S. government's official web portal to all federal, state and local government web resources and services.